Lafayette Regional Airport Lafayette US
ICAO: KLFT
IATA: LFT
Category: Large
Scheduled Services: Yes

Elevation: 42 ft
TransAlt. 18000 ft.

Airport Communications:
APP/DEP:121.1
ATIS:134.05
CLNC DEL:125.55
CTAF:118.5
GND:121.8
DE RIDDER RDO:122.35
TWR:118.5
UNICOM:122.95

KLFT Zoom In..

Runways:

(A) RW 04L length 4099 ft width 75 ft
---- / hdg 36

(B) RW 04R length 8001 ft width 150 ft
ILS 110.90 / hdg 36

(C) RW 11 length 5401 ft width 148 ft
---- / hdg 107

(D) RW 22L length 8001 ft width 150 ft
ILS 109.50 / hdg 216

(E) RW 22R length 4099 ft width 75 ft
---- / hdg 216

(F) RW 29 length 5401 ft width 148 ft
---- / hdg 287

Location; KLFT
Day. 19 / Time. 20.53 Zulu
* Altimeter: 30.18
* Temperature: 23° c. 73.4°f.
* Wind from: 020° Speed 12 kn.
Dewpoint: 06° c.
Visibility: 10 Statute Miles.
Clouds: Clear (automated report).

KLFT 192053Z 02012KT 10SM CLR 23/06 A3018 RMK AO2 SLP218 T02330061 58011


Wind From 020°
Speed 12 kn.

  YouTube Music Video
 
jpsmedia.com for Web Design  worldairports.se 2018   terms of use